[[{"header":{"parameterUnit":"m.s-1","parameterCategory":1,"la1":30.2991,"la2":30.254,"lo1":-89.0895,"lo2":-89.0444,"dy":0.0017,"dx":0.0017,"nx":28,"ny":28,"refTime":"2023-10-22T09:00:00:Z","depth":0,"parameterNumber":2,"parameterNumberName":"U-component_of_WINDS"},"data":[0,0,0,0,0,0,0,0,0,0,0,0,0,0,0,0,0,0,0,0,0,0,0,0,0,0,0,0,0,0,0,0,0,0,0,0,0,0,0,0,0,0,0,0,0,0,0,0,0,0,0,0,0,0,0,0,0,0,-3.8839,-3.8839,0,-3.8873,-3.8873,-3.8874,-3.8781,-3.8778,-3.8775,-3.8773,-3.8803,-3.8807,-3.881,0,0,0,0,0,0,0,0,0,0,0,0,0,-3.8693,-3.8696,-3.8839,-3.8839,-3.884,-3.8873,-3.8873,-3.8874,-3.8782,-3.8778,-3.8775,-3.8771,-3.8802,-3.8806,-3.8811,0,0,0,0,0,0,0,0,0,0,0,0,0,-3.8745,-3.8697,-3.8839,-3.8798,-3.8795,-3.8873,-3.8873,-3.8874,-3.8782,-3.8778,-3.8774,-3.877,-3.8801,-3.8806,-3.8811,-3.8929,0,0,-3.8827,-3.8829,0,0,0,0,0,0,0,0,-3.8742,-3.875,-3.8803,-3.8801,-3.8797,-3.8818,-3.8833,-3.8892,-3.8783,-3.8787,-3.8773,-3.8768,-3.8812,-3.8816,-3.8831,-3.8931,-3.8932,-3.8828,-3.8831,-3.8833,-3.8834,0,0,0,0,0,0,0,-3.8738,-3.8748,-3.8852,-3.8804,-3.8801,-3.8778,-3.878,-3.8844,-3.8823,-3.8786,-3.878,-3.8785,-3.8809,-3.8827,-3.8831,-3.8932,-3.8827,-3.8832,-3.8835,-3.8837,-3.9133,-3.9138,0,0,0,0,0,0,-3.8741,-3.8746,-3.8851,-3.8853,-3.8759,-3.8784,-3.8786,-3.8816,-3.8822,-3.8819,-3.8789,-3.8781,-3.882,-3.8825,-3.8832,-3.8972,-3.8833,-3.8838,-3.8841,-3.9129,-3.9134,-3.914,0,0,0,0,0,0,-3.8738,-3.8751,-3.885,-3.8798,-3.8809,-3.8791,-3.8825,-3.8819,-3.8836,-3.8824,-3.8819,-3.8811,-3.8817,-3.8825,-3.8907,-3.8972,-3.884,-3.8845,-3.9123,-3.913,-3.9137,-3.9252,0,0,0,0,0,0,-3.8734,-3.875,-3.8795,-3.88,-3.8812,-3.8924,-3.8828,-3.8823,-3.8846,-3.8836,-3.8843,-3.884,-3.8814,-3.8899,-3.8912,-3.8976,-3.8849,-3.9117,-3.9126,-3.9135,-3.9242,-3.9262,-3.9279,0,0,0,0,0,-3.8729,-3.8824,-3.8797,-3.8811,-3.8867,-3.8928,-3.8935,-3.8904,-3.8851,-3.8896,-3.8889,-3.884,-3.8963,-3.8909,-3.8922,-3.8989,-3.9113,-3.9124,-3.9134,-3.9234,-3.9258,-3.9279,0,0,0,0,0,0,-3.8824,-3.8824,-3.8794,-3.8894,-3.8912,-3.8912,-3.8967,-3.893,-3.8962,-3.8951,-3.891,-3.8913,-3.9003,-3.9004,-3.8943,-3.9105,-3.9029,-3.9043,-3.91,-3.9123,-3.9142,-3.9138,-3.8853,0,0,0,0,0,-3.8858,-3.8908,-3.8904,-3.8993,-3.9004,-3.8985,-3.901,-3.8985,-3.9002,-3.9008,-3.9007,-3.9024,-3.9067,-3.9095,-3.9134,-3.9243,-3.9244,-3.9296,-3.9315,-3.933,-3.9342,-3.9402,-3.9425,-3.9174,-3.9174,-3.9174,0,0,-3.8925,-3.8931,-3.8965,-3.9012,-3.9023,-3.9076,-3.8991,-3.905,-3.9089,-3.9016,-3.9094,-3.9095,-3.9111,-3.9208,-3.9251,-3.9212,-3.9412,-3.9344,-3.9356,-3.9359,-3.9415,-3.9439,-3.946,-3.9182,-3.918,-3.9179,0,0,-3.9076,-3.9086,-3.9161,-3.9176,-3.9195,-3.9183,-3.9201,-3.9209,-3.9207,-3.9285,-3.9233,-3.9279,-3.9353,-3.9368,-3.9385,-3.9548,-3.9504,-3.9562,-3.9657,-3.9716,-3.9736,-3.9753,-3.9811,-3.9833,-3.9574,-3.9574,-3.9574,0,-3.9156,-3.9235,-3.9204,-3.9268,-3.9291,-3.9232,-3.9309,-3.9324,-3.9354,-3.9371,-3.9328,-3.9423,-3.943,-3.953,-3.9571,-3.9587,-3.9607,-3.9559,-3.9736,-3.9753,-3.9768,-3.9823,-3.9846,-3.9581,-3.958,-3.9579,-3.9579,0,-3.9334,-3.939,-3.9449,-3.9483,-3.9513,-3.9583,-3.9563,-3.9597,-3.9572,-3.9564,-3.9646,-3.9653,-3.9693,-3.9716,-3.969,-3.9814,-3.979,-3.9743,-3.9664,-3.9799,-3.9851,-3.9872,-3.9591,-3.9588,-3.9586,-3.9584,0,0,-3.954,-3.9561,-3.9583,-3.9599,-3.9619,-3.9661,-3.973,-3.9772,-3.9802,-3.9827,-3.9883,-3.9951,-3.9908,-3.9928,-3.9904,-3.9956,-4.0086,-3.9902,-3.9902,-3.9936,-4.0225,-4.0259,-4.0284,-4.0059,-4.0063,-4.0066,-4.0223,0,-3.9689,-3.9807,-3.9785,-3.99,-3.9952,-3.99,-3.996,-3.9979,-3.9975,-4.0019,-4.0014,-4.0062,-4.0002,-4.0014,-4.0064,-4.006,-4.0143,-4.0048,-4.011,-4.0113,-4.0106,-4.0311,-4.0347,-4.0495,-4.0243,-4.0246,-4.0249,0,-3.9876,-3.9911,-4.0034,-4.0049,-4.007,-4.0124,-4.0163,-4.0205,-4.0227,-4.0221,-4.0246,-4.0214,-4.0282,-4.0207,-4.0301,-4.0238,-4.0262,-4.0265,-4.027,-4.0272,-4.0187,-4.0318,-4.0541,-4.0563,-4.028,-4.0277,-4.0275,0,-4.0014,-4.0092,-4.0176,-4.0192,-4.0212,-4.0252,-4.0262,-4.0279,-4.0307,-4.0341,-4.0359,-4.04,-4.0422,-4.0455,-4.0435,-4.0381,-4.0534,-4.0455,-4.053,-4.0531,-4.0561,-4.0559,-4.079,-4.0581,-4.058,-4.058,-4.0579,0,-4.0181,-4.0257,-4.0239,-4.029,-4.0376,-4.035,-4.0435,-4.0438,-4.0456,-4.0507,-4.0464,-4.0513,-4.0485,-4.0532,-4.0517,-4.0598,-4.0608,-4.0605,-4.06,-4.0608,-4.0609,-4.0622,-4.061,-4.0586,-4.0584,-4.0583,-4.0582,0,-4.0347,-4.0338,-4.0426,-4.0441,-4.0446,-4.0508,-4.052,-4.0568,-4.0564,-4.063,-4.0644,-4.0636,-4.069,-4.0674,-4.0731,-4.0721,-4.0825,-4.0807,-4.0818,-4.0813,-4.0888,-4.0881,-4.1133,-4.1166,-4.0937,-4.0939,-4.0941,0,-4.0453,-4.0512,-4.0534,-4.0567,-4.0581,-4.0634,-4.0663,-4.0642,-4.0674,-4.0707,-4.0751,-4.0802,-4.0841,-4.093,-4.0928,-4.0973,-4.0955,-4.1041,-4.0961,-4.0969,-4.0956,-4.0952,-4.0958,-4.1056,-4.1059,-4.1061,-4.1062,0,-4.0642,-4.0637,-4.0682,-4.0728,-4.0765,-4.0799,-4.0829,-4.0858,-4.0839,-4.0878,-4.0934,-4.0965,-4.1027,-4.1077,-4.1119,-4.1129,-4.1093,-4.1089,-4.1108,-4.1116,-4.112,-4.1118,-4.086,-4.1082,-4.108,-4.1078,-4.1077,-4.1077,-4.0781,-4.0832,-4.0857,-4.091,-4.0932,-4.0962,-4.1009,-4.1013,-4.106,-4.1109,-4.1094,-4.1158,-4.1182,-4.1235,-4.1251,-4.1301,-4.1267,-4.1296,-4.1302,-4.1309,-4.1319,-4.1114,-4.1308,-4.1308,-4.1307,-4.1307,-4.1306,0,-4.0967,-4.0982,-4.1032,-4.1078,-4.112,-4.1087,-4.112,-4.1157,-4.1215,-4.1241,-4.1283,-4.1349,-4.1399,-4.1405,-4.1453,-4.1492,-4.1477,-4.1505,-4.1501,-4.1504,-4.1346,-4.1324,-4.1517,-4.1517,-4.1517,-4.1517,-4.1517,-4.1517,-4.1069,-4.1154,-4.1152,-4.1248,-4.1262,-4.1327,-4.1349,-4.1377,-4.1399,-4.1475,-4.1518,-4.1523,-4.1541,-4.1591,-4.1637,-4.1637,-4.1656,-4.1691,-4.1685,-4.1536,-4.1515,-4.1495,-4.1474,-4.1696,-4.1696,-4.1839,-4.1841,-4.1842]},{"header":{"parameterUnit":"m.s-1","parameterCategory":1,"la1":30.2991,"la2":30.254,"lo1":-89.0895,"lo2":-89.0444,"dy":0.0017,"dx":0.0017,"nx":28,"ny":28,"refTime":"2023-10-22T09:00:00:Z","depth":0,"parameterNumber":3,"parameterNumberName":"V-component_of_WINDS"},"data":[0,0,0,0,0,0,0,0,0,0,0,0,0,0,0,0,0,0,0,0,0,0,0,0,0,0,0,0,0,0,0,0,0,0,0,0,0,0,0,0,0,0,0,0,0,0,0,0,0,0,0,0,0,0,0,0,0,0,2.1287,2.1288,0,2.1384,2.1385,2.1386,2.1372,2.137,2.1369,2.1367,2.146,2.1464,2.1468,0,0,0,0,0,0,0,0,0,0,0,0,0,2.1088,2.1092,2.1287,2.1288,2.129,2.1383,2.1385,2.1386,2.1372,2.137,2.1368,2.1367,2.1459,2.1463,2.1468,0,0,0,0,0,0,0,0,0,0,0,0,0,2.1179,2.1093,2.1287,2.1294,2.1296,2.1383,2.1385,2.1386,2.1373,2.137,2.1368,2.1366,2.1457,2.1463,2.1469,2.1553,0,0,2.1487,2.1489,0,0,0,0,0,0,0,0,2.1173,2.1186,2.1292,2.1294,2.1296,2.1364,2.1349,2.1442,2.1373,2.1343,2.1367,2.1364,2.1429,2.1437,2.1461,2.1558,2.1562,2.1487,2.1491,2.1494,2.1495,0,0,0,0,0,0,0,2.1167,2.1182,2.1325,2.1293,2.1296,2.1292,2.1302,2.1366,2.1398,2.1346,2.1345,2.1357,2.143,2.1455,2.1463,2.1563,2.1487,2.1492,2.1496,2.1498,2.1738,2.1741,0,0,0,0,0,0,2.116,2.1176,2.1322,2.1328,2.1228,2.1297,2.1309,2.1344,2.1398,2.1404,2.1359,2.1356,2.1446,2.1456,2.1466,2.1571,2.1493,2.1499,2.1502,2.1735,2.1739,2.1742,0,0,0,0,0,0,2.1155,2.1173,2.1318,2.1252,2.127,2.1303,2.1343,2.1347,2.1372,2.1408,2.1413,2.1379,2.1444,2.1457,2.1533,2.1574,2.1502,2.1507,2.1732,2.1736,2.174,2.178,0,0,0,0,0,0,2.115,2.1171,2.1204,2.1253,2.1274,2.1384,2.1346,2.1351,2.1383,2.138,2.1428,2.1433,2.1444,2.1524,2.1539,2.1581,2.1512,2.1728,2.1734,2.1739,2.1775,2.1785,2.1794,0,0,0,0,0,2.1143,2.1209,2.1206,2.1223,2.1316,2.1387,2.1399,2.1411,2.1386,2.142,2.1443,2.1432,2.1567,2.1532,2.1548,2.1593,2.1726,2.1732,2.1738,2.1771,2.1783,2.1793,0,0,0,0,0,0,2.116,2.1215,2.1212,2.1297,2.1338,2.1384,2.1426,2.1423,2.147,2.1465,2.1476,2.1487,2.1564,2.1586,2.1546,2.1679,2.1643,2.1653,2.1662,2.1674,2.1683,2.1676,2.1517,0,0,0,0,0,2.1175,2.1229,2.1274,2.1344,2.1365,2.1393,2.1424,2.1431,2.1472,2.1489,2.1517,2.1557,2.1609,2.1643,2.1692,2.1779,2.179,2.1817,2.1827,2.1834,2.1842,2.1893,2.1906,2.1762,2.1762,2.1762,0,0,2.1204,2.1241,2.1273,2.1349,2.1381,2.1437,2.1407,2.1466,2.1508,2.1497,2.1571,2.1594,2.1639,2.1722,2.1759,2.1742,2.1885,2.1842,2.1848,2.1852,2.1901,2.1914,2.1926,2.1767,2.1766,2.1765,0,0,2.1285,2.1318,2.1382,2.1417,2.1468,2.1487,2.1502,2.1551,2.1567,2.1642,2.1636,2.1685,2.1774,2.1807,2.1836,2.1936,2.1928,2.1952,2.1999,2.2049,2.206,2.207,2.2108,2.2121,2.196,2.196,2.196,0,2.1314,2.14,2.1415,2.1477,2.1511,2.1508,2.1573,2.1605,2.1668,2.1692,2.1672,2.1787,2.1816,2.1908,2.1933,2.1956,2.1975,2.1946,2.2057,2.2068,2.2077,2.2113,2.2127,2.1963,2.1962,2.1962,2.1962,0,2.1434,2.1493,2.1539,2.1605,2.1644,2.1706,2.1731,2.1769,2.1774,2.1794,2.1873,2.1909,2.1968,2.199,2.1993,2.2084,2.2072,2.2055,2.2019,2.2094,2.2128,2.2141,2.1967,2.1966,2.1965,2.1964,0,0,2.1526,2.1604,2.162,2.1652,2.171,2.1756,2.1819,2.188,2.1913,2.1958,2.2012,2.2089,2.2076,2.2108,2.2116,2.2159,2.2239,2.2137,2.2138,2.2156,2.2344,2.2357,2.2372,2.2235,2.2237,2.2239,2.234,0,2.1614,2.173,2.1748,2.1849,2.1905,2.1905,2.1961,2.2003,2.2025,2.2076,2.2099,2.2155,2.2131,2.2152,2.2195,2.222,2.2277,2.2213,2.2285,2.2287,2.2274,2.239,2.2403,2.2496,2.2354,2.2356,2.2357,0,2.1732,2.1785,2.1893,2.1948,2.1972,2.2022,2.2081,2.2129,2.2177,2.2191,2.223,2.2233,2.23,2.2262,2.2355,2.2311,2.2342,2.2359,2.2363,2.237,2.2327,2.2401,2.2526,2.2541,2.2378,2.2377,2.2375,0,2.1791,2.1888,2.1967,2.1993,2.2059,2.2095,2.2123,2.2169,2.2206,2.2257,2.2281,2.2338,2.2369,2.2413,2.2432,2.2403,2.2525,2.2487,2.2538,2.2537,2.2562,2.2561,2.2695,2.2581,2.2581,2.2581,2.2581,0,2.1888,2.1954,2.1995,2.2043,2.2118,2.2138,2.2212,2.2239,2.2281,2.2334,2.2337,2.2386,2.2408,2.2462,2.2477,2.2552,2.2566,2.2578,2.2582,2.2579,2.2577,2.2599,2.2593,2.2585,2.2584,2.2583,2.2582,0,2.1965,2.1995,2.2081,2.2138,2.2154,2.2207,2.2255,2.2302,2.2326,2.2393,2.241,2.2447,2.251,2.2534,2.2609,2.262,2.2708,2.2705,2.2693,2.2694,2.2743,2.2739,2.2897,2.292,2.279,2.2791,2.2792,0,2.2025,2.2077,2.2142,2.218,2.2211,2.227,2.2309,2.2332,2.2372,2.2434,2.2474,2.2538,2.259,2.2691,2.2723,2.2782,2.2782,2.2833,2.279,2.2787,2.2784,2.2782,2.2788,2.2841,2.2842,2.2843,2.2844,0,2.213,2.2143,2.22,2.2264,2.2312,2.2362,2.2411,2.2441,2.2472,2.2517,2.2584,2.2625,2.2705,2.2769,2.2831,2.2859,2.2857,2.2858,2.2873,2.287,2.2862,2.2869,2.2716,2.2854,2.2853,2.2852,2.2852,2.2851,2.2201,2.2249,2.2303,2.2368,2.2408,2.2455,2.2504,2.2535,2.2592,2.2662,2.2672,2.2744,2.2794,2.2877,2.2909,2.2965,2.2951,2.2972,2.2978,2.2983,2.2988,2.2853,2.2976,2.2976,2.2975,2.2975,2.2975,0,2.2307,2.2343,2.2403,2.2474,2.2525,2.2523,2.2578,2.2621,2.2685,2.2733,2.2787,2.2865,2.2928,2.2968,2.3031,2.3069,2.307,2.3085,2.3083,2.309,2.2995,2.2977,2.3084,2.3084,2.3084,2.3083,2.3083,2.3083,2.2368,2.245,2.2471,2.2573,2.2608,2.2682,2.2714,2.2758,2.2797,2.2885,2.294,2.2966,2.3011,2.3079,2.3137,2.3147,2.3171,2.3187,2.3196,2.3107,2.3096,2.3085,2.3068,2.3192,2.3192,2.3286,2.3287,2.3288]}]]